Montpelier, VT

8:24 AM EST on December 13, 2019 (GMT -0500)
Knapp State

Weather History for KMPV - July, 2019

Change the Weather History Date:

Wednesday, July 24, 2019

  Actual Average Record
Temperature  
Mean Temperature 63 °F 67 °F  
Max Temperature 73 °F 79 °F 89 °F (1987)
Min Temperature 53 °F 56 °F 42 °F (1985)
Degree Days  
Heating Degree Days 2 1  
Month to date heating degree days 30  
Since 1 June heating degree days 151  
Since 1 July heating degree days 30  
Cooling Degree Days 0 3  
Month to date cooling degree days 76  
Year to date cooling degree days 139  
Since 1 June cooling degree days 129  
Growing Degree Days 13 (Base 50)    
Moisture  
Dew Point 54 °F    
Average Humidity 83    
Maximum Humidity 100    
Minimum Humidity 45    
Precipitation  
Precipitation 0.00 in 0.14 in 1.26 in (2008)
Month to date precipitation 3.06  
Year to date precipitation 19.77  
Sea Level Pressure  
Sea Level Pressure 30.03 in    
Wind  
Wind Speed 2 mph (NW)    
Max Wind Speed 14 mph    
Max Gust Speed 20 mph    
Visibility 7 miles    
Events Fog    
T = Trace of Precipitation, MM = Missing Value Source: NWS Daily Summary

Daily Weather History Graph

Daily Weather History Graph

Search for Another Location

Airport or City:

Astronomy

Jul. 24, 2019 Rise Set
Actual Time 5:29 AM EDT 8:23 PM EDT
Civil Twilight 4:54 AM EDT 8:57 PM EDT
Nautical Twilight 4:11 AM EDT 9:41 PM EDT
Astronomical Twilight 3:20 AM EDT 10:31 PM EDT
Moon No Moon Rise 12:52 PM EDT (7/24)
Length of Visible Light 16h 02m
Length of Day
14h 54m
Waning Gibbous, 54% of the Moon is Illuminated
Jul 24
Waning Gibbous
Jul 24
Last Quarter
Jul 31
New
Aug 7
First Quarter
Aug 15
Full

Hourly Weather History & Observations

Time (EDT) Temp. Dew Point Humidity Pressure Visibility Wind Dir Wind Speed Gust Speed Precip Events Conditions
12:51 AM 59.0 °F 55.9 °F 90% 29.97 in 10.0 mi Calm Calm - N/A   Clear
1:51 AM 57.9 °F 57.0 °F 97% 29.99 in 10.0 mi South 4.6 mph - N/A   Overcast
2:51 AM 59.0 °F 57.0 °F 93% 29.99 in 10.0 mi Calm Calm - N/A   Overcast
3:51 AM 57.0 °F 55.9 °F 96% 29.98 in 10.0 mi Calm Calm - N/A   Clear
4:51 AM 55.9 °F 55.0 °F 97% 30.00 in 10.0 mi Calm Calm - N/A   Clear
5:02 AM 55.0 °F 55.0 °F 100% 30.00 in 3.0 mi Calm Calm - N/A   Scattered Clouds
5:04 AM 55.9 °F 55.0 °F 97% 30.00 in 1.8 mi Calm Calm - N/A   Scattered Clouds
5:06 AM 55.9 °F 55.0 °F 97% 30.00 in 1.2 mi Calm Calm - N/A   Mostly Cloudy
5:09 AM 55.9 °F 55.0 °F 97% 30.00 in 0.8 mi Calm Calm - N/A   Mist
5:51 AM 53.1 °F 53.1 °F 100% 30.02 in 0.8 mi Calm Calm - N/A   Mist
5:53 AM 53.1 °F 53.1 °F 100% 30.02 in 2.5 mi Calm Calm - N/A   Mostly Cloudy
6:00 AM 55.0 °F 54.0 °F 96% 30.02 in 9.0 mi Calm Calm - N/A   Mostly Cloudy
6:08 AM 55.0 °F 55.0 °F 100% 30.02 in 1.5 mi NNW 3.5 mph - N/A   Mostly Cloudy
6:10 AM 55.0 °F 55.0 °F 100% 30.03 in 0.8 mi Calm Calm - N/A   Mist
6:51 AM 55.9 °F 55.9 °F 100% 30.04 in 0.5 mi Calm Calm - N/A Fog Fog
7:22 AM 57.0 °F 57.0 °F 100% 30.04 in 1.2 mi Calm Calm - N/A   Overcast
7:24 AM 57.0 °F 57.0 °F 100% 30.04 in 2.5 mi Calm Calm - N/A   Overcast
7:31 AM 57.0 °F 57.0 °F 100% 30.04 in 8.0 mi Calm Calm - N/A   Mostly Cloudy
7:51 AM 57.0 °F 57.0 °F 100% 30.05 in 10.0 mi Calm Calm - N/A   Scattered Clouds
8:51 AM 63.0 °F 57.0 °F 81% 30.06 in 10.0 mi NNE 3.5 mph - N/A   Clear
9:51 AM 66.0 °F 54.0 °F 65% 30.06 in 10.0 mi Variable 4.6 mph - N/A   Clear
10:51 AM 69.1 °F 53.1 °F 57% 30.04 in 10.0 mi ENE 6.9 mph - N/A   Clear
11:51 AM 71.1 °F 52.0 °F 51% 30.04 in 10.0 mi ENE 4.6 mph - N/A   Partly Cloudy
12:51 PM 71.1 °F 53.1 °F 53% 30.03 in 10.0 mi NW 10.4 mph - N/A   Mostly Cloudy
1:51 PM 72.0 °F 51.1 °F 48% 30.03 in 10.0 mi WNW 13.8 mph 17.3 mph N/A   Partly Cloudy
2:51 PM 73.9 °F 51.1 °F 45% 30.02 in 10.0 mi NW 8.1 mph 19.6 mph N/A   Clear
3:51 PM 73.0 °F 53.1 °F 49% 30.01 in 10.0 mi NW 10.4 mph - N/A   Partly Cloudy
4:51 PM 73.0 °F 52.0 °F 48% 30.02 in 10.0 mi WNW 8.1 mph - N/A   Partly Cloudy
5:51 PM 71.1 °F 52.0 °F 51% 30.03 in 10.0 mi NNW 9.2 mph - N/A   Scattered Clouds
7:51 PM 66.9 °F 54.0 °F 63% 30.05 in 10.0 mi WNW 4.6 mph - N/A   Clear
8:51 PM 62.1 °F 55.0 °F 78% 30.07 in 10.0 mi WSW 3.5 mph - N/A   Clear
9:51 PM 57.9 °F 54.0 °F 87% 30.09 in 10.0 mi Calm Calm - N/A   Clear
10:51 PM 55.9 °F 53.1 °F 90% 30.09 in 10.0 mi SSE 3.5 mph - N/A   Clear
11:51 PM 55.9 °F 53.1 °F 90% 30.10 in 10.0 mi Calm Calm - N/A   Clear